When you browse on this site, cookies collect data to enhance your experience and personalize the content and advertising you see.
Visit our Privacy Policy to learn more. By continuing to use the site, you agree to this use of cookies and data.
  • In Belgium
  • List of Countries
  • For 7 days
  • Water Temperature
  • Satellite Maps
  • Weather Map
  • Weather Widgets
  • user-avatar
    Login

    Hourly Weather Kalgoorlie

    Today, 23 February, Saturday

    Time Temperature Precipitation Wind Pressure Humidity
    00:00 +32°C° 0 mm 5 mps 728 mmHg 23%
    01:00 +30°C° 0 mm 5 mps 728 mmHg 29%
    02:00 +29°C° 0 mm 6 mps 728 mmHg 38%
    03:00 +28°C° 0 mm 5 mps 728 mmHg 43%
    04:00 +27°C° 0 mm 5 mps 728 mmHg 47%
    05:00 +27°C° 0 mm 4 mps 728 mmHg 52%
    06:00 +27°C° 0 mm 4 mps 728 mmHg 48%
    07:00 +28°C° 0 mm 3 mps 728 mmHg 45%
    08:00 +30°C° 0 mm 2 mps 729 mmHg 39%
    09:00 +32°C° 0 mm 2 mps 729 mmHg 32%
    10:00 +36°C° 0 mm 2 mps 728 mmHg 25%
    11:00 +37°C° 0 mm 1 mps 728 mmHg 19%
    12:00 +40°C° 0 mm 1 mps 728 mmHg 16%
    13:00 +41°C° 0 mm 1 mps 728 mmHg 14%
    14:00 +42°C° 0 mm 2 mps 728 mmHg 12%
    15:00 +42°C° 0 mm 2 mps 728 mmHg 11%
    16:00 +43°C° 0 mm 3 mps 728 mmHg 11%
    17:00 +44°C° 0 mm 3 mps 728 mmHg 10%
    18:00 +43°C° 0 mm 3 mps 728 mmHg 11%
    19:00 +40°C° 0 mm 3 mps 728 mmHg 13%
    20:00 +39°C° 0 mm 3 mps 728 mmHg 14%
    21:00 +38°C° 0 mm 3 mps 728 mmHg 15%
    22:00 +36°C° 0 mm 4 mps 728 mmHg 17%
    23:00 +35°C° 0 mm 5 mps 729 mmHg 19%

    Tomorrow, 24 February, Sunday

    Time Temperature Precipitation Wind Pressure Humidity
    00:00 +34°C° 0.1 mm 4 mps 729 mmHg 21%
    01:00 +33°C° 0.1 mm 3 mps 729 mmHg 24%
    02:00 +31°C° 0.1 mm 2 mps 729 mmHg 26%
    03:00 +30°C° 0 mm 3 mps 729 mmHg 32%
    04:00 +29°C° 0 mm 4 mps 729 mmHg 37%
    05:00 +28°C° 0 mm 5 mps 729 mmHg 43%
    06:00 +28°C° 0 mm 6 mps 729 mmHg 45%
    07:00 +28°C° 0 mm 6 mps 730 mmHg 46%
    08:00 +28°C° 0 mm 7 mps 730 mmHg 48%
    09:00 +30°C° 0.1 mm 6 mps 730 mmHg 42%
    10:00 +33°C° 0.1 mm 6 mps 730 mmHg 35%
    11:00 +35°C° 0.1 mm 5 mps 730 mmHg 29%
    12:00 +37°C° 0 mm 4 mps 730 mmHg 26%
    13:00 +38°C° 0 mm 4 mps 729 mmHg 22%
    14:00 +40°C° 0 mm 3 mps 729 mmHg 19%
    15:00 +41°C° 0 mm 4 mps 729 mmHg 19%
    16:00 +41°C° 0 mm 5 mps 729 mmHg 19%
    17:00 +41°C° 0 mm 5 mps 729 mmHg 18%
    18:00 +40°C° 0 mm 7 mps 729 mmHg 21%
    19:00 +38°C° 0 mm 9 mps 730 mmHg 24%
    20:00 +36°C° 0 mm 11 mps 731 mmHg 27%
    21:00 +33°C° 0 mm 11 mps 731 mmHg 32%
    22:00 +31°C° 0 mm 11 mps 732 mmHg 38%
    23:00 +27°C° 0 mm 11 mps 732 mmHg 44%

    Day after tomorrow, 25 February, Monday

    Time Temperature Precipitation Wind Pressure Humidity
    00:00 +26°C° 0 mm 10 mps 732 mmHg 44%
    01:00 +26°C° 0 mm 9 mps 733 mmHg 45%
    02:00 +24°C° 0 mm 9 mps 733 mmHg 45%
    03:00 +23°C° 0 mm 8 mps 733 mmHg 48%
    04:00 +23°C° 0 mm 8 mps 733 mmHg 50%
    05:00 +22°C° 0 mm 8 mps 733 mmHg 52%
    06:00 +23°C° 0 mm 8 mps 733 mmHg 51%
    07:00 +23°C° 0 mm 8 mps 733 mmHg 51%
    08:00 +24°C° 0 mm 8 mps 734 mmHg 50%
    09:00 +27°C° 0 mm 8 mps 733 mmHg 42%
    10:00 +31°C° 0 mm 8 mps 733 mmHg 34%
    11:00 +34°C° 0 mm 8 mps 733 mmHg 27%
    12:00 +35°C° 0 mm 7 mps 733 mmHg 23%
    13:00 +38°C° 0 mm 6 mps 732 mmHg 20%
    14:00 +40°C° 0 mm 5 mps 732 mmHg 17%
    15:00 +40°C° 0 mm 5 mps 731 mmHg 16%
    16:00 +40°C° 0 mm 4 mps 731 mmHg 15%
    17:00 +41°C° 0 mm 4 mps 731 mmHg 15%
    18:00 +40°C° 0 mm 5 mps 731 mmHg 16%
    19:00 +37°C° 0 mm 5 mps 732 mmHg 18%
    20:00 +36°C° 0 mm 6 mps 732 mmHg 19%
    21:00 +34°C° 0 mm 7 mps 732 mmHg 29%
    22:00 +31°C° 0 mm 8 mps 732 mmHg 39%
    23:00 +28°C° 0 mm 9 mps 732 mmHg 49%

    26 February, Tuesday

    Time Temperature Precipitation Wind Pressure Humidity
    00:00 +27°C° 0 mm 9 mps 732 mmHg 53%
    01:00 +24°C° 0 mm 9 mps 731 mmHg 57%
    02:00 +23°C° 0 mm 9 mps 731 mmHg 61%
    03:00 +23°C° 0 mm 8 mps 731 mmHg 60%
    04:00 +23°C° 0 mm 7 mps 731 mmHg 60%
    05:00 +23°C° 0 mm 6 mps 731 mmHg 59%
    06:00 +24°C° 0 mm 6 mps 732 mmHg 56%
    07:00 +26°C° 0 mm 6 mps 732 mmHg 52%
    08:00 +27°C° 0 mm 7 mps 732 mmHg 49%
    09:00 +30°C° 0 mm 7 mps 732 mmHg 40%
    10:00 +34°C° 0 mm 7 mps 732 mmHg 31%
    11:00 +38°C° 0 mm 7 mps 732 mmHg 22%
    12:00 +40°C° 0 mm 7 mps 731 mmHg 18%
    13:00 +43°C° 0 mm 7 mps 731 mmHg 14%
    14:00 +45°C° 0 mm 7 mps 730 mmHg 10%
    15:00 +45°C° 0 mm 6 mps 729 mmHg 10%
    16:00 +45°C° 0 mm 5 mps 729 mmHg 10%
    17:00 +45°C° 0 mm 5 mps 729 mmHg 10%
    18:00 +43°C° 0 mm 5 mps 729 mmHg 10%
    19:00 +42°C° 0 mm 5 mps 729 mmHg 11%
    20:00 +40°C° 0 mm 5 mps 729 mmHg 12%
    21:00 +40°C° 0 mm 5 mps 729 mmHg 12%
    22:00 +39°C° 0 mm 6 mps 729 mmHg 12%
    23:00 +38°C° 0 mm 6 mps 729 mmHg 12%

    27 February, Wednesday

    Time Temperature Precipitation Wind Pressure Humidity
    00:00 +37°C° 0 mm 5 mps 729 mmHg 12%
    01:00 +36°C° 0 mm 5 mps 729 mmHg 13%
    02:00 +35°C° 0 mm 4 mps 728 mmHg 13%
    03:00 +34°C° 0 mm 4 mps 728 mmHg 13%
    04:00 +33°C° 0 mm 4 mps 728 mmHg 14%
    05:00 +33°C° 0 mm 4 mps 728 mmHg 15%
    06:00 +34°C° 0 mm 5 mps 729 mmHg 14%
    07:00 +36°C° 0 mm 6 mps 729 mmHg 13%
    08:00 +38°C° 0 mm 7 mps 729 mmHg 11%
    09:00 +40°C° 0 mm 8 mps 729 mmHg 10%
    10:00 +44°C° 0 mm 8 mps 729 mmHg 9%
    11:00 +46°C° 0 mm 8 mps 729 mmHg 8%
    12:00 +46°C° 0 mm 8 mps 728 mmHg 7%
    13:00 +47°C° 0 mm 7 mps 728 mmHg 7%
    14:00 +48°C° 0 mm 6 mps 727 mmHg 7%
    15:00 +47°C° 0 mm 6 mps 727 mmHg 7%
    16:00 +47°C° 0 mm 5 mps 727 mmHg 7%
    17:00 +46°C° 0 mm 5 mps 726 mmHg 7%
    18:00 +44°C° 0 mm 4 mps 727 mmHg 8%
    19:00 +43°C° 0 mm 3 mps 727 mmHg 9%
    20:00 +42°C° 0 mm 3 mps 727 mmHg 9%
    21:00 +40°C° 0 mm 3 mps 728 mmHg 10%
    22:00 +40°C° 0 mm 4 mps 728 mmHg 11%
    23:00 +39°C° 0 mm 5 mps 728 mmHg 12%

    28 February, Thursday

    Time Temperature Precipitation Wind Pressure Humidity
    00:00 +37°C° 0 mm 4 mps 727 mmHg 14%
    01:00 +36°C° 0 mm 4 mps 727 mmHg 17%
    02:00 +35°C° 0 mm 3 mps 727 mmHg 20%
    03:00 +34°C° 0 mm 3 mps 727 mmHg 22%
    04:00 +33°C° 0 mm 3 mps 727 mmHg 23%
    05:00 +31°C° 0 mm 2 mps 727 mmHg 25%
    06:00 +34°C° 0 mm 3 mps 727 mmHg 21%
    07:00 +36°C° 0 mm 4 mps 727 mmHg 16%
    08:00 +39°C° 0 mm 5 mps 728 mmHg 12%
    09:00 +41°C° 0 mm 6 mps 727 mmHg 11%
    10:00 +44°C° 0 mm 8 mps 727 mmHg 10%
    11:00 +48°C° 0 mm 9 mps 727 mmHg 9%
    12:00 +48°C° 0 mm 8 mps 726 mmHg 8%
    13:00 +49°C° 0 mm 8 mps 725 mmHg 8%
    14:00 +49°C° 0 mm 7 mps 725 mmHg 8%
    15:00 +49°C° 0 mm 7 mps 725 mmHg 9%
    16:00 +47°C° 0 mm 7 mps 724 mmHg 9%
    17:00 +46°C° 0 mm 7 mps 724 mmHg 10%
    18:00 +45°C° 0 mm 6 mps 725 mmHg 12%
    19:00 +43°C° 0 mm 5 mps 725 mmHg 14%
    20:00 +41°C° 0 mm 5 mps 725 mmHg 16%
    21:00 +41°C° 0 mm 5 mps 725 mmHg 16%
    22:00 +40°C° 0 mm 5 mps 725 mmHg 15%
    23:00 +40°C° 0 mm 5 mps 725 mmHg 15%
    Show more